軌道要素
Epoch 2019 Aug. 25.0 TT = JDT 2458720.5
T 2019 Sept. 5.72955 TT Williams
q 1.4546667 (2000.0) P Q
z -0.0005217 Peri. 157.97322 +0.92110264 +0.38824895
+/-0.0000004 Node 181.84962 +0.04815173 -0.04006017
e 1.0007589 Incl. 116.61563 +0.38633060 -0.92068341
From 1580 observations 2018 Nov. 27-2019 Nov. 2, mean residual 0".5.
|